TimeEST,TemperatureF,Dew PointF,Humidity,Sea Level PressureIn,VisibilityMPH,Wind Direction,Wind SpeedMPH,Gust SpeedMPH,PrecipitationIn,Events,Conditions,WindDirDegrees,DateUTC
12:49 AM,26.6,24.8,93,30.14,0.5,East,9.2,-,0.00,Fog-Snow,Light Snow,100,2013-12-14 05:49:00
12:53 AM,27.0,24.1,89,30.17,0.5,East,8.1,-,0.00,Fog-Snow,Light Snow,100,2013-12-14 05:53:00
1:03 AM,26.6,24.8,93,30.14,0.8,East,9.2,-,0.00,Snow,Light Snow,100,2013-12-14 06:03:00
1:20 AM,26.6,24.8,93,30.13,0.8,East,11.5,-,0.00,Snow,Light Snow,90,2013-12-14 06:20:00
1:53 AM,27.0,24.1,89,30.16,0.8,East,11.5,-,0.00,Snow,Light Snow,90,2013-12-14 06:53:00
2:04 AM,26.6,24.8,93,30.12,0.8,East,11.5,-,0.00,Snow,Light Snow,90,2013-12-14 07:04:00
2:19 AM,26.6,23.0,86,30.12,1.5,East,13.8,-,0.00,Snow,Light Snow,90,2013-12-14 07:19:00
2:24 AM,26.6,23.0,86,30.11,2.0,East,15.0,-,0.00,Snow,Light Snow,90,2013-12-14 07:24:00
2:53 AM,27.0,23.0,85,30.14,1.8,East,13.8,-,0.00,Snow,Light Snow,90,2013-12-14 07:53:00
3:12 AM,26.6,23.0,86,30.11,0.8,East,12.7,-,0.00,Snow,Light Snow,90,2013-12-14 08:12:00
3:25 AM,26.6,23.0,86,30.11,0.8,East,11.5,-,0.00,Snow,Light Snow,100,2013-12-14 08:25:00
3:38 AM,26.6,23.0,86,30.10,0.8,East,11.5,-,0.00,Snow,Light Snow,90,2013-12-14 08:38:00
3:53 AM,27.0,24.1,89,30.13,0.8,East,9.2,-,0.00,Snow,Light Snow,90,2013-12-14 08:53:00
4:11 AM,26.6,23.0,86,30.09,1.0,East,12.7,-,0.00,Snow,Light Snow,90,2013-12-14 09:11:00
4:53 AM,27.0,23.0,85,30.09,1.0,East,12.7,-,0.00,Snow,Light Snow,90,2013-12-14 09:53:00
5:39 AM,26.6,24.8,93,30.05,2.0,East,16.1,-,0.00,Snow,Light Snow,100,2013-12-14 10:39:00
5:48 AM,26.6,24.8,93,30.04,1.5,East,12.7,-,0.00,Snow,Light Snow,90,2013-12-14 10:48:00
5:53 AM,27.0,24.1,89,30.07,1.2,East,10.4,-,0.00,Snow,Light Snow,80,2013-12-14 10:53:00
6:18 AM,24.8,21.2,86,30.04,2.5,East,18.4,25.3,0.00,Snow,Light Snow,80,2013-12-14 11:18:00
6:51 AM,24.8,21.2,86,30.05,1.2,East,18.4,-,0.00,Snow,Light Snow,90,2013-12-14 11:51:00
6:53 AM,25.0,21.0,85,30.08,1.2,East,16.1,-,0.00,Snow,Light Snow,100,2013-12-14 11:53:00
7:02 AM,24.8,21.2,86,30.05,0.8,East,12.7,-,0.00,Snow,Light Snow,90,2013-12-14 12:02:00
7:11 AM,24.8,21.2,86,30.05,0.5,East,11.5,-,0.00,Fog-Snow,Snow,90,2013-12-14 12:11:00
7:25 AM,24.8,21.2,86,30.04,0.5,East,12.7,-,0.00,Fog-Snow,Snow,80,2013-12-14 12:25:00
7:41 AM,24.8,21.2,86,30.03,0.8,East,16.1,-,0.00,Snow,Light Snow,90,2013-12-14 12:41:00
7:53 AM,24.1,21.0,88,30.06,0.8,East,10.4,-,0.00,Snow,Light Snow,80,2013-12-14 12:53:00
8:07 AM,24.8,19.4,80,30.03,1.0,East,13.8,-,0.00,Snow,Light Snow,80,2013-12-14 13:07:00
8:21 AM,24.8,19.4,80,30.03,0.5,ENE,12.7,-,0.00,Fog-Snow,Snow,70,2013-12-14 13:21:00
8:38 AM,24.8,19.4,80,30.01,0.2,ENE,16.1,23.0,0.00,Fog-Snow,Snow,70,2013-12-14 13:38:00
8:53 AM,24.1,21.0,88,30.04,0.2,ENE,12.7,-,0.00,Fog-Snow,Snow,60,2013-12-14 13:53:00
9:07 AM,24.8,21.2,86,30.00,0.2,ENE,12.7,-,0.00,Fog-Snow,Snow,70,2013-12-14 14:07:00
9:48 AM,24.8,21.2,86,30.00,0.2,ENE,12.7,-,0.00,Fog-Snow,Snow,70,2013-12-14 14:48:00
9:53 AM,24.1,21.0,88,30.03,0.2,ENE,12.7,-,0.00,Fog-Snow,Snow,70,2013-12-14 14:53:00
10:09 AM,24.8,21.2,86,29.98,0.2,East,11.5,-,0.00,Fog-Snow,Snow,80,2013-12-14 15:09:00
10:36 AM,24.8,21.2,86,29.97,0.5,East,11.5,-,0.00,Fog-Snow,Light Snow,80,2013-12-14 15:36:00
10:53 AM,25.0,21.0,85,30.00,0.5,ENE,11.5,-,0.00,Fog-Snow,Light Snow,70,2013-12-14 15:53:00
11:02 AM,24.8,21.2,86,29.96,0.8,ENE,12.7,-,0.00,Snow,Light Snow,70,2013-12-14 16:02:00
11:10 AM,24.8,21.2,86,29.96,0.5,ENE,12.7,-,0.00,Fog-Snow,Light Snow,70,2013-12-14 16:10:00
11:39 AM,26.6,21.2,80,29.93,0.2,ENE,10.4,-,0.00,Fog-Snow,Snow,70,2013-12-14 16:39:00
11:53 AM,26.1,21.9,84,29.95,0.2,ENE,11.5,-,0.00,Fog-Snow,Snow,70,2013-12-14 16:53:00
12:53 PM,26.1,23.0,88,29.91,0.2,ENE,11.5,-,0.00,Fog-Snow,Snow,60,2013-12-14 17:53:00
1:53 PM,26.1,21.9,84,29.87,0.5,NE,11.5,-,0.00,Fog-Snow,Light Snow,40,2013-12-14 18:53:00
2:01 PM,26.6,23.0,86,29.84,0.5,NE,11.5,-,0.00,Fog-Snow,Snow,40,2013-12-14 19:01:00
2:19 PM,26.6,23.0,86,29.83,0.2,NE,11.5,-,0.00,Fog-Snow,Snow,50,2013-12-14 19:19:00
2:39 PM,26.6,23.0,86,29.83,0.5,NE,11.5,-,0.00,Fog-Snow,Light Snow,40,2013-12-14 19:39:00
2:53 PM,26.1,21.9,84,29.86,0.8,NNE,11.5,-,0.00,Snow,Light Snow,30,2013-12-14 19:53:00
3:12 PM,26.6,21.2,80,29.82,0.5,NNE,10.4,-,0.00,Fog-Snow,Light Snow,30,2013-12-14 20:12:00
3:20 PM,26.6,21.2,80,29.82,0.2,NNE,10.4,-,0.00,Fog-Snow,Snow,30,2013-12-14 20:20:00
3:53 PM,25.0,21.0,85,29.86,0.5,NNE,11.5,-,0.00,Fog-Snow,Light Snow,30,2013-12-14 20:53:00
4:13 PM,24.8,21.2,86,29.83,0.5,NNE,12.7,-,0.00,Fog-Snow,Light Snow,30,2013-12-14 21:13:00
4:23 PM,24.8,19.4,80,29.83,0.8,NNE,12.7,-,0.00,Snow,Light Snow,30,2013-12-14 21:23:00
4:38 PM,24.8,19.4,80,29.83,1.0,NNE,12.7,-,0.00,Snow,Light Snow,30,2013-12-14 21:38:00
4:53 PM,24.1,19.9,84,29.88,1.2,NNE,9.2,-,0.00,Snow,Light Snow,20,2013-12-14 21:53:00
5:08 PM,24.8,19.4,80,29.84,2.0,NNE,11.5,-,0.00,Snow,Light Snow,20,2013-12-14 22:08:00
5:17 PM,24.8,19.4,80,29.84,2.0,NNE,13.8,-,0.00,Snow,Light Snow,20,2013-12-14 22:17:00
5:38 PM,23.0,19.4,86,29.85,4.0,NNE,10.4,-,0.00,Snow,Light Snow,20,2013-12-14 22:38:00
5:53 PM,23.0,19.0,85,29.87,6.0,NNE,12.7,-,0.00,Snow,Light Snow,30,2013-12-14 22:53:00
6:53 PM,21.9,17.1,82,29.89,10.0,North,10.4,-,N/A,,Overcast,10,2013-12-14 23:53:00
7:53 PM,21.9,17.1,82,29.89,6.0,North,9.2,-,0.00,Snow,Light Snow,360,2013-12-15 00:53:00
8:53 PM,21.9,17.1,82,29.91,5.0,NNW,6.9,-,0.00,,Haze,330,2013-12-15 01:53:00
9:53 PM,21.9,17.1,82,29.91,10.0,NW,6.9,-,N/A,,Overcast,320,2013-12-15 02:53:00
10:53 PM,21.9,17.1,82,29.92,10.0,NW,8.1,-,N/A,,Overcast,310,2013-12-15 03:53:00
11:53 PM,21.9,17.1,82,29.93,10.0,NW,9.2,-,N/A,,Overcast,310,2013-12-15 04:53:00